Time,TemperatureF,DewpointF,PressureIn,WindDirection,WindDirectionDegrees,WindSpeedMPH,WindSpeedGustMPH,Humidity,HourlyPrecipIn,Conditions,Clouds,dailyrainin,SoftwareType,DateUTC
2013-02-24 00:01:00,17.0,14.0,29.83,SW,224,0.0,-999.0,88,-99.99,,,-99.99,,2013-02-24 06:01:00,
2013-02-24 00:11:00,17.0,14.0,29.83,SW,224,0.0,-999.0,88,-99.99,,,-99.99,,2013-02-24 06:11:00,
2013-02-24 00:21:00,17.0,14.0,29.84,SW,224,0.0,-999.0,88,-99.99,,,-99.99,,2013-02-24 06:21:00,
2013-02-24 00:31:00,17.0,14.0,29.84,SW,224,0.0,-999.0,89,-99.99,,,-99.99,,2013-02-24 06:31:00,
2013-02-24 00:42:00,17.0,14.0,29.84,SW,224,0.0,-999.0,89,-99.99,,,-99.99,,2013-02-24 06:42:00,
2013-02-24 00:52:00,16.0,13.0,29.84,SW,224,0.0,-999.0,89,-99.99,,,-99.99,,2013-02-24 06:52:00,
2013-02-24 01:01:00,15.0,12.0,29.84,SW,224,0.0,-999.0,89,-99.99,,,-99.99,,2013-02-24 07:01:00,
2013-02-24 01:12:00,15.0,12.0,29.84,SW,224,0.0,-999.0,89,-99.99,,,-99.99,,2013-02-24 07:12:00,
2013-02-24 01:21:00,14.0,11.0,29.84,SW,224,0.0,-999.0,88,-99.99,,,-99.99,,2013-02-24 07:21:00,
2013-02-24 01:31:00,13.0,10.0,29.85,SW,224,0.0,-999.0,89,-99.99,,,-99.99,,2013-02-24 07:31:00,
2013-02-24 01:42:00,13.0,10.0,29.85,SW,224,0.0,-999.0,89,-99.99,,,-99.99,,2013-02-24 07:42:00,
2013-02-24 01:52:00,12.0,9.0,29.86,SW,224,0.0,-999.0,89,-99.99,,,-99.99,,2013-02-24 07:52:00,
2013-02-24 02:01:00,12.0,9.0,29.87,SW,224,0.0,-999.0,89,-99.99,,,-99.99,,2013-02-24 08:01:00,
2013-02-24 02:11:00,12.0,9.0,29.87,SW,224,0.0,-999.0,89,-99.99,,,-99.99,,2013-02-24 08:11:00,
2013-02-24 02:22:00,13.0,11.0,29.87,SW,224,0.0,-999.0,90,-99.99,,,-99.99,,2013-02-24 08:22:00,
2013-02-24 02:31:00,13.0,11.0,29.87,SW,224,0.0,-999.0,90,-99.99,,,-99.99,,2013-02-24 08:31:00,
2013-02-24 02:42:00,13.0,11.0,29.87,SW,224,0.0,-999.0,90,-99.99,,,-99.99,,2013-02-24 08:42:00,
2013-02-24 02:54:00,13.0,11.0,29.88,SW,224,0.0,-999.0,90,-99.99,,,-99.99,,2013-02-24 08:54:00,
2013-02-24 03:01:00,13.0,11.0,29.88,SW,224,0.0,-999.0,90,-99.99,,,-99.99,,2013-02-24 09:01:00,
2013-02-24 03:11:00,13.0,11.0,29.88,SW,224,0.0,-999.0,90,-99.99,,,-99.99,,2013-02-24 09:11:00,
2013-02-24 03:21:00,13.0,11.0,29.88,SW,224,0.0,-999.0,90,-99.99,,,-99.99,,2013-02-24 09:21:00,
2013-02-24 03:31:00,13.0,11.0,29.88,SW,224,0.0,-999.0,90,-99.99,,,-99.99,,2013-02-24 09:31:00,
2013-02-24 03:41:00,13.0,11.0,29.88,SW,224,0.0,-999.0,90,-99.99,,,-99.99,,2013-02-24 09:41:00,
2013-02-24 03:52:00,13.0,11.0,29.88,West,267,0.0,-999.0,90,-99.99,,,-99.99,,2013-02-24 09:52:00,
2013-02-24 04:01:00,13.0,11.0,29.88,West,267,0.0,-999.0,90,-99.99,,,-99.99,,2013-02-24 10:01:00,
2013-02-24 04:11:00,13.0,11.0,29.88,West,267,0.0,-999.0,90,-99.99,,,-99.99,,2013-02-24 10:11:00,
2013-02-24 04:21:00,12.0,9.0,29.88,West,267,0.0,-999.0,89,-99.99,,,-99.99,,2013-02-24 10:21:00,
2013-02-24 04:31:00,11.0,8.0,29.88,West,267,0.0,-999.0,89,-99.99,,,-99.99,,2013-02-24 10:31:00,
2013-02-24 04:41:00,11.0,8.0,29.88,West,267,0.0,-999.0,89,-99.99,,,-99.99,,2013-02-24 10:41:00,
2013-02-24 04:52:00,10.0,7.0,29.88,West,267,0.0,-999.0,89,-99.99,,,-99.99,,2013-02-24 10:52:00,
2013-02-24 05:01:00,10.0,7.0,29.89,West,267,0.0,-999.0,89,-99.99,,,-99.99,,2013-02-24 11:01:00,
2013-02-24 05:11:00,10.0,7.0,29.89,West,267,0.0,-999.0,89,-99.99,,,-99.99,,2013-02-24 11:11:00,
2013-02-24 05:21:00,9.0,6.0,29.90,West,267,0.0,-999.0,88,-99.99,,,-99.99,,2013-02-24 11:21:00,
2013-02-24 05:32:00,8.0,5.0,29.90,West,267,0.0,-999.0,88,-99.99,,,-99.99,,2013-02-24 11:32:00,
2013-02-24 05:41:00,8.0,5.0,29.90,West,267,0.0,-999.0,88,-99.99,,,-99.99,,2013-02-24 11:41:00,
2013-02-24 05:53:00,8.0,5.0,29.91,West,267,0.0,-999.0,88,-99.99,,,-99.99,,2013-02-24 11:53:00,
2013-02-24 06:01:00,8.0,5.0,29.91,West,267,0.0,-999.0,88,-99.99,,,-99.99,,2013-02-24 12:01:00,
2013-02-24 06:11:00,8.0,5.0,29.91,West,267,0.0,-999.0,88,-99.99,,,-99.99,,2013-02-24 12:11:00,
2013-02-24 06:21:00,7.0,4.0,29.91,West,267,0.0,-999.0,88,-99.99,,,-99.99,,2013-02-24 12:21:00,
2013-02-24 06:32:00,7.0,4.0,29.91,West,267,0.0,-999.0,88,-99.99,,,-99.99,,2013-02-24 12:32:00,
2013-02-24 06:46:00,7.0,4.0,29.91,West,267,0.0,-999.0,88,-99.99,,,-99.99,,2013-02-24 12:46:00,
2013-02-24 06:56:00,7.0,4.0,29.93,West,267,0.0,-999.0,88,-99.99,,,-99.99,,2013-02-24 12:56:00,
2013-02-24 07:09:00,7.0,4.0,29.93,West,267,0.0,-999.0,88,-99.99,,,-99.99,,2013-02-24 13:09:00,
2013-02-24 07:26:00,7.0,4.0,29.93,West,267,0.0,-999.0,88,-99.99,,,-99.99,,2013-02-24 13:26:00,
2013-02-24 07:33:00,6.0,3.0,29.93,West,267,0.0,-999.0,88,-99.99,,,-99.99,,2013-02-24 13:33:00,
2013-02-24 07:44:00,6.0,3.0,29.93,West,267,0.0,-999.0,88,-99.99,,,-99.99,,2013-02-24 13:44:00,
2013-02-24 07:54:00,6.0,3.0,29.93,West,267,0.0,-999.0,88,-99.99,,,-99.99,,2013-02-24 13:54:00,
2013-02-24 08:03:00,7.0,4.0,29.95,West,267,0.0,-999.0,89,-99.99,,,-99.99,,2013-02-24 14:03:00,
2013-02-24 08:13:00,10.0,8.0,29.94,West,267,0.0,-999.0,90,-99.99,,,-99.99,,2013-02-24 14:13:00,
2013-02-24 08:24:00,10.0,8.0,29.94,West,267,0.0,-999.0,90,-99.99,,,-99.99,,2013-02-24 14:24:00,
2013-02-24 08:33:00,12.0,10.0,29.94,West,267,0.0,-999.0,91,-99.99,,,-99.99,,2013-02-24 14:33:00,
2013-02-24 08:44:00,12.0,10.0,29.94,West,267,0.0,-999.0,91,-99.99,,,-99.99,,2013-02-24 14:44:00,
2013-02-24 08:54:00,13.0,11.0,29.95,West,267,0.0,-999.0,90,-99.99,,,-99.99,,2013-02-24 14:54:00,
2013-02-24 09:02:00,14.0,12.0,29.95,West,267,0.0,-999.0,90,-99.99,,,-99.99,,2013-02-24 15:02:00,
2013-02-24 09:13:00,16.0,14.0,29.95,West,267,0.0,-999.0,91,-99.99,,,-99.99,,2013-02-24 15:13:00,
2013-02-24 09:23:00,16.0,14.0,29.95,West,267,0.0,-999.0,91,-99.99,,,-99.99,,2013-02-24 15:23:00,
2013-02-24 09:32:00,17.0,15.0,29.95,West,267,0.0,-999.0,90,-99.99,,,-99.99,,2013-02-24 15:32:00,
2013-02-24 09:42:00,17.0,15.0,29.95,West,267,0.0,-999.0,90,-99.99,,,-99.99,,2013-02-24 15:42:00,
2013-02-24 09:53:00,19.0,16.0,29.95,West,267,0.0,-999.0,89,-99.99,,,-99.99,,2013-02-24 15:53:00,
2013-02-24 10:01:00,20.0,17.0,29.95,West,267,0.0,-999.0,88,-99.99,,,-99.99,,2013-02-24 16:01:00,
2013-02-24 10:11:00,20.0,17.0,29.95,West,267,0.0,-999.0,88,-99.99,,,-99.99,,2013-02-24 16:11:00,
2013-02-24 10:21:00,22.0,18.0,29.95,West,267,0.0,-999.0,85,-99.99,,,-99.99,,2013-02-24 16:21:00,
2013-02-24 10:32:00,23.0,18.0,29.95,West,267,0.0,-999.0,82,-99.99,,,-99.99,,2013-02-24 16:32:00,
2013-02-24 10:41:00,23.0,18.0,29.95,West,267,0.0,-999.0,82,-99.99,,,-99.99,,2013-02-24 16:41:00,
2013-02-24 10:52:00,26.0,21.0,29.96,WSW,243,0.0,-999.0,80,-99.99,,,-99.99,,2013-02-24 16:52:00,
2013-02-24 11:01:00,27.0,21.0,29.96,WSW,237,0.0,-999.0,77,-99.99,,,-99.99,,2013-02-24 17:01:00,
2013-02-24 11:11:00,27.0,21.0,29.96,WSW,237,0.0,-999.0,77,-99.99,,,-99.99,,2013-02-24 17:11:00,
2013-02-24 11:21:00,29.0,22.0,29.96,SSW,208,0.0,-999.0,75,-99.99,,,-99.99,,2013-02-24 17:21:00,
2013-02-24 11:32:00,29.0,21.0,29.96,SE,128,0.0,-999.0,72,-99.99,,,-99.99,,2013-02-24 17:32:00,
2013-02-24 11:41:00,29.0,21.0,29.96,SE,128,0.0,-999.0,72,-99.99,,,-99.99,,2013-02-24 17:41:00,
2013-02-24 11:52:00,31.0,22.0,29.96,South,171,0.0,-999.0,70,-99.99,,,-99.99,,2013-02-24 17:52:00,
2013-02-24 12:01:00,32.0,23.0,29.97,South,174,0.0,-999.0,68,-99.99,,,-99.99,,2013-02-24 18:01:00,
2013-02-24 12:11:00,32.0,23.0,29.97,South,174,0.0,-999.0,68,-99.99,,,-99.99,,2013-02-24 18:11:00,
2013-02-24 12:22:00,33.0,23.0,29.97,SSW,209,0.0,-999.0,67,-99.99,,,-99.99,,2013-02-24 18:22:00,
2013-02-24 12:32:00,34.0,24.0,29.97,South,184,0.0,-999.0,67,-99.99,,,-99.99,,2013-02-24 18:32:00,
2013-02-24 12:42:00,34.0,24.0,29.97,South,184,0.0,-999.0,67,-99.99,,,-99.99,,2013-02-24 18:42:00,
2013-02-24 12:52:00,34.0,23.0,29.96,South,188,1.0,-999.0,64,-99.99,,,-99.99,,2013-02-24 18:52:00,
2013-02-24 13:01:00,34.0,23.0,29.96,SSW,192,1.0,-999.0,64,-99.99,,,-99.99,,2013-02-24 19:01:00,
2013-02-24 13:11:00,34.0,23.0,29.96,SSW,192,1.0,-999.0,64,-99.99,,,-99.99,,2013-02-24 19:11:00,
2013-02-24 13:22:00,35.0,24.0,29.96,SSW,208,0.0,-999.0,63,-99.99,,,-99.99,,2013-02-24 19:22:00,
2013-02-24 13:32:00,35.0,24.0,29.96,SSE,167,0.0,-999.0,64,-99.99,,,-99.99,,2013-02-24 19:32:00,
2013-02-24 13:41:00,35.0,24.0,29.96,SSE,167,0.0,-999.0,64,-99.99,,,-99.99,,2013-02-24 19:41:00,
2013-02-24 13:52:00,36.0,24.0,29.96,WSW,238,0.0,-999.0,62,-99.99,,,-99.99,,2013-02-24 19:52:00,
2013-02-24 14:02:00,36.0,24.0,29.96,South,187,0.0,-999.0,62,-99.99,,,-99.99,,2013-02-24 20:02:00,
2013-02-24 14:11:00,36.0,24.0,29.96,South,187,0.0,-999.0,62,-99.99,,,-99.99,,2013-02-24 20:11:00,
2013-02-24 14:21:00,35.0,23.0,29.95,SSW,208,0.0,-999.0,62,-99.99,,,-99.99,,2013-02-24 20:21:00,
2013-02-24 14:31:00,35.0,23.0,29.95,South,175,0.0,-999.0,61,-99.99,,,-99.99,,2013-02-24 20:31:00,
2013-02-24 14:41:00,35.0,23.0,29.95,South,175,0.0,-999.0,61,-99.99,,,-99.99,,2013-02-24 20:41:00,
2013-02-24 14:52:00,35.0,23.0,29.94,SW,214,0.0,-999.0,61,-99.99,,,-99.99,,2013-02-24 20:52:00,
2013-02-24 15:01:00,35.0,23.0,29.94,South,181,0.0,-999.0,62,-99.99,,,-99.99,,2013-02-24 21:01:00,
2013-02-24 15:11:00,35.0,23.0,29.94,South,181,0.0,-999.0,62,-99.99,,,-99.99,,2013-02-24 21:11:00,
2013-02-24 15:21:00,35.0,23.0,29.94,South,181,0.0,-999.0,61,-99.99,,,-99.99,,2013-02-24 21:21:00,
2013-02-24 15:32:00,36.0,24.0,29.94,South,181,0.0,-999.0,62,-99.99,,,-99.99,,2013-02-24 21:32:00,
2013-02-24 15:42:00,36.0,24.0,29.94,South,181,0.0,-999.0,62,-99.99,,,-99.99,,2013-02-24 21:42:00,
2013-02-24 15:52:00,35.0,24.0,29.94,SSE,157,1.0,-999.0,63,-99.99,,,-99.99,,2013-02-24 21:52:00,
2013-02-24 16:01:00,34.0,23.0,29.94,SSE,157,0.0,-999.0,63,-99.99,,,-99.99,,2013-02-24 22:01:00,
2013-02-24 16:11:00,34.0,23.0,29.94,SSE,157,0.0,-999.0,63,-99.99,,,-99.99,,2013-02-24 22:11:00,
2013-02-24 16:21:00,34.0,23.0,29.94,SE,137,0.0,-999.0,65,-99.99,,,-99.99,,2013-02-24 22:21:00,
2013-02-24 16:31:00,34.0,23.0,29.94,South,175,1.0,-999.0,64,-99.99,,,-99.99,,2013-02-24 22:31:00,
2013-02-24 16:41:00,34.0,23.0,29.94,South,175,1.0,-999.0,64,-99.99,,,-99.99,,2013-02-24 22:41:00,
2013-02-24 16:52:00,34.0,23.0,29.94,East,101,0.0,-999.0,65,-99.99,,,-99.99,,2013-02-24 22:52:00,
2013-02-24 17:02:00,34.0,23.0,29.94,SSE,154,0.0,-999.0,65,-99.99,,,-99.99,,2013-02-24 23:02:00,
2013-02-24 17:11:00,34.0,23.0,29.94,SSE,154,0.0,-999.0,65,-99.99,,,-99.99,,2013-02-24 23:11:00,
2013-02-24 17:21:00,33.0,22.0,29.95,South,174,0.0,-999.0,64,-99.99,,,-99.99,,2013-02-24 23:21:00,
2013-02-24 17:31:00,33.0,23.0,29.95,South,191,0.0,-999.0,66,-99.99,,,-99.99,,2013-02-24 23:31:00,
2013-02-24 17:41:00,33.0,23.0,29.95,South,191,0.0,-999.0,66,-99.99,,,-99.99,,2013-02-24 23:41:00,
2013-02-24 17:52:00,32.0,23.0,29.95,South,191,0.0,-999.0,68,-99.99,,,-99.99,,2013-02-24 23:52:00,
2013-02-24 18:01:00,31.0,22.0,29.95,South,191,0.0,-999.0,69,-99.99,,,-99.99,,2013-02-25 00:01:00,
2013-02-24 18:11:00,31.0,22.0,29.95,South,191,0.0,-999.0,69,-99.99,,,-99.99,,2013-02-25 00:11:00,
2013-02-24 18:21:00,29.0,21.0,29.96,South,191,0.0,-999.0,71,-99.99,,,-99.99,,2013-02-25 00:21:00,
2013-02-24 18:31:00,29.0,21.0,29.96,South,191,0.0,-999.0,72,-99.99,,,-99.99,,2013-02-25 00:31:00,
2013-02-24 18:42:00,29.0,21.0,29.96,South,191,0.0,-999.0,72,-99.99,,,-99.99,,2013-02-25 00:42:00,
2013-02-24 18:52:00,28.0,21.0,29.97,South,191,0.0,-999.0,74,-99.99,,,-99.99,,2013-02-25 00:52:00,
2013-02-24 19:01:00,27.0,20.0,29.97,South,191,0.0,-999.0,75,-99.99,,,-99.99,,2013-02-25 01:01:00,
2013-02-24 19:11:00,27.0,20.0,29.97,South,191,0.0,-999.0,75,-99.99,,,-99.99,,2013-02-25 01:11:00,
2013-02-24 19:21:00,26.0,19.0,29.97,South,191,0.0,-999.0,76,-99.99,,,-99.99,,2013-02-25 01:21:00,
2013-02-24 19:31:00,26.0,20.0,29.98,South,191,0.0,-999.0,77,-99.99,,,-99.99,,2013-02-25 01:31:00,
2013-02-24 19:42:00,26.0,20.0,29.98,South,191,0.0,-999.0,77,-99.99,,,-99.99,,2013-02-25 01:42:00,
2013-02-24 19:52:00,25.0,19.0,29.98,South,191,0.0,-999.0,79,-99.99,,,-99.99,,2013-02-25 01:52:00,
2013-02-24 20:01:00,25.0,19.0,29.98,South,191,0.0,-999.0,79,-99.99,,,-99.99,,2013-02-25 02:01:00,
2013-02-24 20:11:00,25.0,19.0,29.98,South,191,0.0,-999.0,79,-99.99,,,-99.99,,2013-02-25 02:11:00,
2013-02-24 20:21:00,24.0,19.0,29.98,South,191,0.0,-999.0,80,-99.99,,,-99.99,,2013-02-25 02:21:00,
2013-02-24 20:31:00,23.0,18.0,29.98,South,191,0.0,-999.0,80,-99.99,,,-99.99,,2013-02-25 02:31:00,
2013-02-24 20:41:00,23.0,18.0,29.98,South,191,0.0,-999.0,80,-99.99,,,-99.99,,2013-02-25 02:41:00,
2013-02-24 20:52:00,22.0,17.0,29.98,South,191,0.0,-999.0,82,-99.99,,,-99.99,,2013-02-25 02:52:00,
2013-02-24 21:01:00,22.0,18.0,29.98,South,191,0.0,-999.0,83,-99.99,,,-99.99,,2013-02-25 03:01:00,
2013-02-24 21:11:00,22.0,18.0,29.98,South,191,0.0,-999.0,83,-99.99,,,-99.99,,2013-02-25 03:11:00,
2013-02-24 21:21:00,21.0,17.0,29.98,South,191,0.0,-999.0,84,-99.99,,,-99.99,,2013-02-25 03:21:00,
2013-02-24 21:31:00,20.0,16.0,29.98,South,191,0.0,-999.0,85,-99.99,,,-99.99,,2013-02-25 03:31:00,
2013-02-24 21:41:00,20.0,16.0,29.98,South,191,0.0,-999.0,85,-99.99,,,-99.99,,2013-02-25 03:41:00,
2013-02-24 21:52:00,20.0,16.0,29.98,South,191,0.0,-999.0,86,-99.99,,,-99.99,,2013-02-25 03:52:00,
2013-02-24 22:01:00,20.0,17.0,29.98,South,191,0.0,-999.0,87,-99.99,,,-99.99,,2013-02-25 04:01:00,
2013-02-24 22:11:00,20.0,17.0,29.98,South,191,0.0,-999.0,87,-99.99,,,-99.99,,2013-02-25 04:11:00,
2013-02-24 22:21:00,19.0,16.0,29.98,South,191,0.0,-999.0,87,-99.99,,,-99.99,,2013-02-25 04:21:00,
2013-02-24 22:31:00,19.0,16.0,29.98,South,191,0.0,-999.0,88,-99.99,,,-99.99,,2013-02-25 04:31:00,
2013-02-24 22:41:00,19.0,16.0,29.98,South,191,0.0,-999.0,88,-99.99,,,-99.99,,2013-02-25 04:41:00,
2013-02-24 22:52:00,19.0,16.0,29.98,South,191,0.0,-999.0,88,-99.99,,,-99.99,,2013-02-25 04:52:00,
2013-02-24 23:01:00,18.0,15.0,29.98,South,191,0.0,-999.0,88,-99.99,,,-99.99,,2013-02-25 05:01:00,
2013-02-24 23:11:00,18.0,15.0,29.98,South,191,0.0,-999.0,88,-99.99,,,-99.99,,2013-02-25 05:11:00,
2013-02-24 23:22:00,17.0,14.0,29.98,South,191,0.0,-999.0,88,-99.99,,,-99.99,,2013-02-25 05:22:00,
2013-02-24 23:31:00,17.0,14.0,29.99,South,191,0.0,-999.0,89,-99.99,,,-99.99,,2013-02-25 05:31:00,
2013-02-24 23:42:00,17.0,14.0,29.99,South,191,0.0,-999.0,89,-99.99,,,-99.99,,2013-02-25 05:42:00,
2013-02-24 23:52:00,17.0,14.0,29.99,South,191,0.0,-999.0,89,-99.99,,,-99.99,,2013-02-25 05:52:00,